Regional Weather Roundup
Issued by NWS

Home | Current Version | Previous Version | Graphics & Text | Print | Product List | Glossary On
Versions: 1 2 3 4 5 6 7 8 9 10 11 12 13 14 15 16 17 18 19 20 21 22 23 24 25 26 27 28 29 30 31 32 33 34 35 36 37 38 39 40 41 42 43 44 45 46 47 48 49 50
000
ASUS45 KCYS 270610
RWRWY

WYOMING REGIONAL WEATHER ROUNDUP
NATIONAL WEATHER SERVICE CHEYENNE WY
1200 AM MDT MON APR 27 2015

NOTE:  "FAIR" INDICATES FEW OR NO CLOUDS BELOW 12,000 FEET
WITH NO SIGNIFICANT WEATHER AND/OR OBSTRUCTIONS TO VISIBILITY.

WYZ001-270700-
YELLOWSTONE NATIONAL PARK

CITY           SKY/WX    TMP DP  RH WIND       PRES   REMARKS
LK YELLOWSTONE   N/A     31  29  92 CALM      30.21R
6HR MIN TEMP:  31; 6HR MAX TEMP:  37; 6HR PCP:  0.08;

W YELLOWSTONE  NOT AVBL

$$
WYZ002>013-054>058-071-098>099-270700-
NORTHERN WYOMING

CITY           SKY/WX    TMP DP  RH WIND       PRES   REMARKS
JACKSON        CLOUDY    39  36  87 CALM      30.17S
CODY           CLOUDY    34  30  86 N10       30.22S WCI  26
GREYBULL       CLOUDY    39  31  72 NW15      30.20R WCI  31
6HR MIN TEMP:  39; 6HR MAX TEMP:  46;

WORLAND        LGT RAIN  39  34  82 NW10      30.21R WCI  32
6HR MIN TEMP:  39; 6HR MAX TEMP:  46; 6HR PCP: TRACE;

SHERIDAN       MIX PCPN  35  33  92 N8        30.25S WCI  29
6HR MIN TEMP:  35; 6HR MAX TEMP:  42; 6HR PCP:  0.07;

BUFFALO        CLOUDY    34  33  96 N15G23    30.22R WCI  24
6HR MIN TEMP:  34; 6HR MAX TEMP:  40; 6HR PCP: TRACE;

GILLETTE       CLOUDY    35  34  96 N10       30.20R WCI  27
6HR MIN TEMP:  35; 6HR MAX TEMP:  41; 6HR PCP:  0.06;

HULETT         DRIZZLE   37  37 100 N7        30.20R WCI  32
NEWCASTLE      LGT RAIN  43  43 100 CALM      30.17R

$$
WYZ014>020-022>026-101>103-270700-
CENTRAL WYOMING

CITY           SKY/WX    TMP DP  RH WIND       PRES   REMARKS
BIG PINEY      CLOUDY    39  30  70 NW12      30.14R WCI  32
6HR MIN TEMP:  39; 6HR MAX TEMP:  48;

PINEDALE       CLOUDY    36  34  93 W5        30.14R WCI  32
DUBOIS         LGT SNOW  32  32 100 SE9       30.16R WCI  24
LANDER         LGT RAIN  40  36  86 CALM      30.15S
6HR MIN TEMP:  40; 6HR MAX TEMP:  43; 6HR PCP: TRACE;

RIVERTON       CLOUDY    39  34  82 N9        30.17R WCI  33
6HR MIN TEMP:  39; 6HR MAX TEMP:  43;

CASPER         LGT RAIN  35  34  96 N6        30.17S FOG     WCI  30
6HR MIN TEMP:  35; 6HR MAX TEMP:  37; 6HR PCP:  0.09;

DOUGLAS        RAIN      39  39 100 W5        30.16R FOG
6HR MIN TEMP:  39; 6HR MAX TEMP:  46; 6HR PCP:  0.16;


$$
WYZ021-027>030-104>119-270700-
SOUTHERN WYOMING

CITY           SKY/WX    TMP DP  RH WIND       PRES   REMARKS
EVANSTON       CLOUDY    35  31  85 NW7       30.16S WCI  29
6HR MIN TEMP:  34; 6HR MAX TEMP:  39; 6HR PCP: TRACE;

KEMMERER       LGT SNOW  36  32  87 NW6       30.15R WCI  31
FORT BRIDGER   LGT SNOW  34  34 100 W9        30.17R WCI  26
ROCK SPRINGS   CLOUDY    37  33  85 NE14      30.12R WCI  28
6HR MIN TEMP:  37; 6HR MAX TEMP:  41; 6HR PCP:  0.01;

DIXON          CLOUDY    40  38  91 NE8       30.06R WCI  35
RAWLINS        CLOUDY    36  32  85 N12       30.09R WCI  28
6HR MIN TEMP:  36; 6HR MAX TEMP:  40; 6HR PCP: TRACE;

SARATOGA       FAIR      37  34  87 CALM      30.06R
LARAMIE        CLOUDY    37  32  82 SE8       30.10R WCI  31
6HR MIN TEMP:  35; 6HR MAX TEMP:  42;

CHEYENNE       LGT SNOW  34  32  92 S7        30.13R FOG     WCI  28
6HR MIN TEMP:  34; 6HR MAX TEMP:  39; 6HR PCP:  0.08;

TORRINGTON     LGT RAIN  42  41  96 SE6       30.14R
6HR MIN TEMP:  42; 6HR MAX TEMP:  45; 6HR PCP:  0.09;

PINE BLUFFS    LGT RAIN  37  36  93 E5        30.14R WCI  34

$$



USA.gov is the U.S. government's official web portal to all federal, state and local government web resources and services.